Showing default

HULIANWANG DIGUI-152, 67528

Orbit data source: Space-Track

HULIANWANG DIGUI-152, 67528 is a payload satellite owned by Zhongguo Xingwang (CN) in LEO that was launched on Mon, 19 Jan 2026 UTC via a CHANG ZHENG 12 launch vehicle from the Wenchang Satellite Launch Center (WSC). Payload-class satellites include a variety of spacecraft equipped with specific instruments for various scientific and technological missions. These include communications satellites like Starlink; space stations such as the ISS; scientific satellites like the Hubble; Earth observation satellites from companies like Planet Labs, Umbra, and HawkEye 360; GPS; miniature CubeSats for education and research; and military/defense satellites.

Loading next visibility...
Identifier
67528, 2026-013G
Orbit
LEO
Country
Flag of CNCN / PRC
Related business
Manufacturer
YINNT
Mission
Operational Civil Communications
Bus & Motor
XINGWANG Y, Unknown motor
Mass
~800 kg wet, ~800 kg dry
Launch date (UTC)
2026-01-19 (5 months ago)
Launch vehicle
CHANG ZHENG 12
Launch site
Wenchang Satellite Launch Center (WSC)
Object type
Payload
Rocket body
Debris
Shape & HBR
Box + 2 Pan, 2.1 m
Radar Cross Section
5.935 m², Large (>1 m²)

Expand to show TLE details & history
Last TLE update: 7 hours ago

TLE from 7 hours ago
0 HULIANWANG DIGUI-152
1 67528U 26013G   26163.82363750 -.00000084  00000-0  87100-4 0  9995
2 67528  50.0051  11.0539 0001120  99.8844 260.2155 13.29329965 19477
Epoch: 2026-06-12T19:46Z
TLE epoch observation values (Epoch: 2026-06-12T19:46:02.279Z)
Latitude
-0.00001°
Longitude
173.39685°
Altitude
1,149.941 km
Speed
7.279 km/s
True Right ascension
00h 44m 12s
True Declination
0° 00' 00"
Sunlit
Object was in daylight at epoch
Visualization orbit readout
Latitude
Unknown
Longitude
Unknown
Altitude
Unknown
Speed
Unknown
Apparent Right ascension
Unknown
Apparent Declination
Unknown
Sunlit
N/A
Visualization observer readout
Local Sidereal Time
12:47:43
Azimuth
Unknown
Elevation
Unknown
Doppler factor
Unknown
Orbital elements
Apogee altitude
1,150.839 km
Perigee altitude
1,149.153 km
Semi-major axis
7,528.133 km
Eccentricity
0.00011
Inclination
50.0051°
RAAN
11.0539°
Arg. of periapsis
99.8844°
True anomaly
260.20285°
Mean anomaly
260.2155°
Eccentric anomaly
260.20918°
Mean motion
3.32286 °/min
Orbital period
108.34 mins
BSTAR
0.0000871
Loading maneuver chart data...
Computing Atmospheric mass density...
Loading historical data...
Loading historical data...
Loading historical data...
Loading historical data...
Loading historical data...
Loading historical data...
Loading historical data...

Documentation

Showing up to 5 results
|